Tracking 28052 objects as of 24-Sep-2023
HD Live streaming from Space Station
objects crossing your sky now

COSMOS 886 DEB

Track COSMOS 886 DEB now!
10-day predictions


NORAD ID: 9722
Int'l Code: 1976-126T
Perigee: 845.3 km
Apogee: 2,084.7 km
Inclination: 65.8 °
Period: 115.1 minutes
Semi major axis: 7836 km
RCS: 0.0656 m2 (small)
Launch date: December 27, 1976
Source: Commonwealth of Independent States (former USSR) (CIS)
Launch site: TYURATAM MISSILE AND SPACE COMPLEX (TTMTR)

Note: This is SATELLITE DEBRIS
Your satellite tracking list
Your tracking list is empty




NASA's NSSDC Master Catalog

Two Line Element Set (TLE):
1  9722U 76126T   23267.09749715  .00002543  00000-0  52450-2 0  9996
2  9722  65.7575 227.9000 0790864  68.8352 299.5265 12.51586697112195
Source of the keplerian elements: AFSPC